Theta_e
323 324 324 323 323 325 334 333 336 337 339 339 340 339 347 348 353 350 349 350 352 352 351 349 352 352 355 355 356 355 353 354 352 353 353 353 353 353 353 353 352 352 352 353
327 325 324 324 325 324 330 332 332 333 340 346 340 337 340 351 352 352 350 350 350 348 348 348 345 348 347 353 356 356 355 354 354 353 352 351 351 352 352 350 353 351 351 350
330 328 329 329 328 330 332 333 332 335 336 346 335 333 334 348 351 350 347 345 345 350 347 347 344 349 340 340 353 354 356 354 354 353 352 353 353 353 352 353 353 351 350 351
330 327 328 328 331 331 331 331 329 330 334 346 343 343 341 342 343 342 343 341 338 345 347 347 347 347 348 351 352 349 348 350 354 353 352 354 354 354 353 353 353 352 350 350
329 330 330 330 332 331 331 332 332 334 334 340 342 343 340 340 337 338 337 335 336 336 340 347 345 344 345 347 350 350 348 350 351 351 352 352 353 353 350 349 350 350 348 346
328 330 332 333 332 330 331 332 328 337 335 339 336 349 346 339 337 335 334 334 334 337 334 335 341 344 343 343 343 345 346 345 344 347 347 348 348 349 348 348 348 346 343 338
329 329 329 334 331 332 339 342 334 332 334 334 345 348 340 336 335 333 332 331 329 332 329 328 335 343 342 342 340 341 342 341 341 342 340 339 340 342 342 339 335 331 330 326
334 337 338 334 334 337 340 338 331 329 326 331 342 339 339 338 336 333 332 329 327 325 325 326 333 338 341 338 341 340 341 340 339 339 338 338 336 333 332 330 328 326 326 325
336 339 336 334 334 332 331 336 337 329 325 338 342 340 338 338 335 333 329 326 325 324 324 324 327 329 329 330 335 337 338 337 336 337 336 334 332 330 330 331 329 325 323 322
336 334 334 333 332 332 332 334 336 333 339 341 341 339 339 337 335 334 330 327 324 323 322 322 324 326 326 329 332 330 329 330 332 333 333 333 333 332 331 330 328 328 325 323
331 330 336 336 336 334 338 339 342 341 340 339 339 338 337 336 336 333 332 331 327 324 323 322 320 322 325 327 329 328 327 328 329 330 330 330 330 330 329 329 329 328 327 326
334 337 338 337 331 337 340 340 336 340 339 339 338 339 336 336 335 333 330 325 323 323 323 322 322 323 322 318 319 320 321 322 321 324 326 326 325 324 325 326 326 326 325 323
331 337 337 335 335 338 337 337 337 337 337 336 334 333 331 330 330 326 325 325 325 325 325 326 327 327 323 319 318 319 317 315 315 315 314 313 312 312 312 312 312 311 310 310
326 331 336 332 342 338 337 336 334 334 332 330 329 329 327 326 326 326 326 325 325 326 327 326 326 328 326 322 322 321 319 320 320 320 321 321 321 317 316 314 312 312 311 310
326 328 331 330 331 331 332 334 336 335 333 332 330 329 329 330 329 327 327 327 328 329 329 329 330 329 329 330 329 328 326 326 324 323 323 323 322 321 320 320 320 318 317 316
327 326 329 332 331 330 331 331 334 334 334 333 332 331 330 330 330 330 329 330 330 330 329 329 329 329 328 328 329 324 321 322 323 324 324 324 323 322 321 321 320 320 320 320
328 329 328 333 331 329 328 334 334 335 333 333 332 333 331 330 330 331 331 331 330 330 330 329 327 326 324 322 320 319 321 318 314 316 318 318 317 317 318 318 318 317 318 317
326 328 327 328 332 330 329 329 331 335 334 333 333 332 331 332 332 332 331 330 328 326 325 324 323 321 319 317 315 313 312 313 313 313 314 315 315 314 314 315 316 316 316 315
326 328 328 327 329 332 330 329 329 334 335 334 334 334 332 332 331 330 329 326 324 323 321 316 313 315 316 309 311 316 313 313 314 314 314 312 315 316 316 316 315 315 314 314
326 327 327 327 327 331 331 328 329 333 335 335 333 334 333 332 331 328 325 324 323 322 317 309 315 315 315 307 313 314 313 314 314 315 312 315 314 314 314 314 313 313 312 313
331 331 329 331 331 330 329 329 330 332 335 335 336 334 332 331 329 326 326 323 318 313 314 310 315 314 315 308 311 313 313 313 314 314 314 314 314 313 312 311 311 310 311 312
332 331 330 329 332 330 328 329 331 332 332 334 335 333 332 331 327 326 324 322 317 311 311 310 314 313 311 310 313 312 313 313 313 314 314 313 312 311 311 311 310 311 311 312
330 330 329 329 333 331 329 330 333 333 333 333 334 333 332 328 326 325 323 319 317 309 312 314 312 311 308 313 313 313 313 314 313 312 311 311 310 310 310 310 310 311 311 311
331 331 331 330 331 331 334 331 333 333 333 333 333 332 330 327 325 323 322 319 315 310 313 311 306 305 312 314 313 313 313 312 312 312 310 310 310 310 309 309 310 310 311 310
333 333 333 332 336 335 334 332 333 333 334 333 333 332 328 326 325 322 319 315 311 310 311 307 303 310 311 313 312 312 312 312 312 312 311 311 311 310 310 310 309 309 310 309
335 331 333 333 333 332 332 333 332 333 333 332 331 331 328 326 323 321 317 314 311 309 311 306 304 308 310 313 311 312 312 312 309 309 310 311 311 311 310 310 310 309 309 309
332 331 330 334 332 331 332 332 332 332 332 332 331 330 328 325 323 319 316 313 312 309 311 308 306 307 311 312 311 311 311 311 311 312 311 311 311 311 311 310 310 310 310 310
Wind_Speed
14 16 16 16 14 13 8 11 11 14 19 21 10 13 15 9 9 10 9 9 9 9 7 7 15 18 6 28 31 30 30 28 26 25 23 20 19 16 15 13 14 12 11 13
12 15 15 17 15 18 10 10 10 14 10 12 13 11 12 15 8 11 9 8 7 7 7 8 7 3 17 13 13 32 32 29 27 24 20 18 16 17 17 18 15 16 13 11
12 15 14 11 11 8 2 8 10 12 8 15 8 6 9 8 14 12 10 14 22 10 0 8 12 13 15 31 5 15 12 18 14 17 18 16 17 17 17 16 15 15 14 10
10 11 14 4 14 9 9 11 15 13 5 10 13 10 6 7 6 7 9 14 19 18 5 6 8 13 16 13 7 8 13 5 8 12 12 11 12 13 14 15 14 13 12 10
10 13 15 8 4 6 14 20 13 15 5 15 15 4 4 3 3 4 7 5 16 18 21 11 1 4 5 9 7 12 11 13 11 6 7 4 2 4 9 12 12 10 9 10
9 13 16 10 9 4 6 14 15 19 4 18 20 14 7 4 4 4 6 4 8 16 13 13 11 8 11 6 8 13 16 13 11 7 7 6 3 3 3 6 6 11 10 9
10 12 11 5 4 5 8 7 12 17 15 3 9 7 15 11 7 7 8 10 10 20 8 12 9 2 7 5 4 5 9 10 9 9 8 14 9 7 5 7 6 8 10 7
10 5 9 5 9 14 6 4 6 12 14 23 20 16 13 12 10 10 12 15 14 15 13 12 8 9 11 5 6 7 10 13 12 15 13 14 19 16 16 13 14 11 12 13
3 3 9 4 7 7 6 9 1 13 22 14 19 17 13 13 12 12 16 15 14 16 19 16 11 11 16 10 18 19 18 16 15 20 19 20 21 19 18 16 17 13 9 10
5 5 22 5 7 5 5 16 4 21 16 18 17 17 16 13 12 10 15 15 14 23 20 17 17 14 13 15 15 17 19 17 20 21 20 17 15 12 10 10 10 9 7 7
8 4 8 9 9 2 5 5 4 12 13 13 17 15 14 13 12 13 12 14 15 18 13 14 18 22 19 19 21 22 22 20 19 19 19 17 14 12 9 7 7 6 4 4
3 11 8 10 15 10 7 19 8 6 14 10 15 15 14 11 13 15 15 14 17 15 16 15 14 15 13 17 19 22 17 15 18 19 19 19 18 17 13 12 9 9 8 5
7 16 8 7 5 19 4 13 13 13 13 15 18 19 18 15 15 18 15 17 17 15 17 16 14 15 17 16 17 20 16 16 17 19 18 18 16 16 14 10 9 7 6 6
4 8 10 6 11 16 12 11 15 17 18 18 18 19 19 17 16 15 15 17 17 15 15 15 15 15 15 15 14 15 16 15 13 12 12 10 8 10 11 11 9 6 5 4
6 8 8 9 8 5 6 11 12 11 10 14 18 17 17 16 16 15 16 18 18 15 14 14 14 13 11 9 9 12 13 9 10 11 9 7 7 8 9 7 8 8 6 4
8 7 7 15 11 8 8 11 14 13 12 15 15 16 17 17 17 16 14 13 17 12 14 15 11 10 8 5 4 9 8 5 6 3 7 7 6 5 7 10 9 9 10 10
9 9 6 15 13 10 8 11 10 10 14 20 19 17 19 17 15 16 14 15 14 11 11 11 9 7 5 4 6 5 8 9 2 2 4 9 7 2 2 3 4 6 9 8
10 10 11 8 12 12 10 10 14 20 14 24 22 20 18 14 15 13 13 14 13 11 9 8 6 4 4 3 2 2 1 1 3 3 3 7 6 5 2 2 3 4 5 6
12 13 11 10 11 13 10 10 9 21 25 24 22 18 17 14 14 15 15 14 13 12 9 5 6 5 2 2 4 4 3 2 5 5 4 2 3 2 6 8 9 8 8 9
13 16 12 14 14 18 12 14 14 19 23 22 21 18 17 16 16 16 14 10 6 10 13 8 6 4 2 2 5 3 3 3 3 10 2 6 9 3 4 7 8 10 10 10
12 11 11 10 13 14 19 16 18 16 27 24 20 19 19 18 19 17 15 11 8 11 9 10 8 7 6 4 5 4 7 5 5 6 4 5 4 6 7 7 9 10 11 14
11 12 10 14 13 14 18 18 22 21 17 19 24 24 22 20 19 17 15 10 15 13 9 8 7 5 7 8 6 5 5 6 6 6 6 5 5 5 7 9 11 12 13 13
10 12 13 14 11 17 18 18 26 26 22 21 22 26 25 22 21 18 14 15 14 17 13 11 10 9 9 4 2 6 6 5 6 5 4 4 4 5 6 7 6 6 5 8
7 10 14 16 14 19 12 18 25 26 25 25 25 26 25 21 20 19 17 19 16 18 10 13 11 15 14 6 7 7 7 6 4 4 4 2 3 3 5 4 5 5 5 5
11 11 15 14 11 12 19 20 18 25 25 23 24 24 25 23 21 21 20 20 19 18 12 14 18 19 13 9 9 8 7 7 6 5 4 4 1 2 3 2 4 4 3 2
10 12 13 16 14 15 20 22 17 20 22 21 23 26 26 24 21 19 24 23 23 22 18 17 19 19 13 10 11 10 10 10 7 7 4 3 3 3 2 1 2 3 5 6
12 14 16 15 18 20 22 23 20 19 24 23 21 25 26 25 23 24 22 20 19 21 20 17 17 17 14 13 11 12 11 12 11 15 11 7 5 5 5 2 2 2 2 3
Wind_Direction
265 278 286 285 280 278 270 281 264 300 305 313 52 9 345 332 149 200 200 223 203 182 154 177 194 248 336 178 177 174 179 185 195 193 201 205 211 215 217 228 218 233 241 239
281 280 279 282 288 287 222 283 303 258 325 66 26 354 355 339 306 221 218 236 226 218 150 175 136 124 312 316 167 174 179 186 187 193 198 200 202 201 208 217 223 224 236 244
283 293 305 261 265 342 206 217 246 275 295 127 119 135 291 337 356 34 17 29 353 249 301 147 173 187 209 259 134 163 179 169 178 194 194 200 209 218 221 223 228 232 233 228
265 280 275 332 42 11 332 296 289 243 190 91 56 59 357 321 7 40 38 46 3 2 350 90 180 208 204 203 226 145 186 118 209 188 200 207 217 223 227 230 232 226 237 228
270 270 265 271 34 324 305 284 264 278 255 126 99 34 296 10 358 46 66 82 112 11 0 19 188 222 204 193 164 117 150 169 206 174 149 131 190 240 238 237 230 229 217 233
268 276 286 357 35 351 349 288 259 353 83 152 154 191 200 176 123 62 63 338 84 77 353 17 28 175 193 139 117 109 109 108 114 95 115 74 18 295 245 228 213 200 196 191
234 242 265 136 226 171 267 349 22 15 6 285 225 107 127 120 125 110 85 47 37 93 34 347 359 113 140 149 118 121 123 120 109 110 96 73 80 62 99 97 114 138 143 129
251 305 271 81 202 224 10 81 76 33 333 309 106 105 124 126 113 96 76 62 56 63 63 36 40 90 151 107 205 166 142 135 135 117 111 111 95 94 90 96 97 111 110 110
38 266 330 262 262 282 315 323 51 163 215 206 113 122 125 114 102 91 85 83 80 72 57 54 68 95 93 99 125 138 133 128 125 131 122 114 111 113 102 98 108 111 119 113
154 231 237 327 330 351 344 91 31 221 193 117 122 126 118 105 104 99 103 96 92 78 70 58 77 93 102 111 114 112 108 111 114 110 118 121 122 120 124 127 128 123 130 106
254 272 80 18 330 130 99 63 134 95 97 114 115 111 105 109 109 107 96 104 93 93 98 92 83 83 89 104 113 114 111 113 110 111 113 116 119 119 121 129 139 145 144 134
35 124 153 241 264 296 121 90 11 198 111 111 109 114 115 113 117 114 114 112 99 100 98 96 88 91 100 93 97 98 98 102 105 103 106 109 110 106 105 109 109 118 121 114
90 153 164 199 73 311 122 121 156 98 111 106 104 110 114 113 106 113 119 114 111 113 108 101 96 94 87 93 107 102 108 113 119 119 123 129 129 123 130 127 125 123 115 107
115 142 150 151 157 194 152 117 111 114 115 113 114 114 116 121 125 116 115 118 117 118 116 114 108 102 92 93 109 110 109 107 97 92 94 94 119 167 140 138 129 116 99 82
160 171 189 156 131 142 141 128 111 119 125 124 121 122 128 125 124 134 136 135 135 129 124 114 105 101 101 94 84 72 114 94 123 114 122 130 138 131 125 118 128 155 172 177
167 217 217 150 150 158 178 168 160 155 149 128 131 146 135 132 140 150 152 132 119 122 116 114 106 80 81 88 125 111 100 87 58 109 148 177 174 163 197 171 175 186 212 183
184 209 230 171 158 167 192 160 143 187 160 149 153 141 137 149 153 117 112 114 125 118 110 110 103 97 89 51 9 83 146 124 70 228 321 70 57 349 6 5 350 24 109 131
256 237 212 209 163 170 193 185 170 170 150 153 151 145 151 156 136 141 135 125 124 122 120 124 125 102 60 36 4 34 244 51 82 45 26 78 43 35 23 352 16 10 56 134
249 249 207 197 201 166 193 178 177 158 166 154 159 156 146 151 154 144 138 147 149 146 146 156 160 128 123 272 189 285 139 162 129 111 66 94 167 247 44 28 22 8 343 343
235 236 221 190 213 174 179 178 166 144 156 153 152 157 159 158 160 153 156 152 120 135 143 150 145 151 172 210 165 313 149 160 115 93 33 354 62 48 59 55 16 1 353 346
215 231 219 214 189 179 169 172 157 155 150 160 155 155 163 166 164 166 172 156 136 143 159 165 171 162 173 171 209 228 155 139 129 121 138 100 103 52 51 36 20 1 347 351
212 210 211 222 183 166 171 177 159 153 167 165 162 162 166 166 171 181 184 196 170 174 168 179 185 174 156 192 254 164 142 157 147 137 128 105 83 59 44 37 16 14 9 4
209 197 208 216 197 163 169 180 158 161 169 173 167 166 169 174 180 182 182 163 167 174 183 169 169 182 166 170 178 149 162 158 139 125 110 99 80 75 50 32 15 11 25 20
264 211 205 210 203 164 169 176 167 168 175 177 177 174 171 178 187 196 190 174 178 182 188 176 177 172 175 190 166 164 164 162 140 120 126 77 101 85 83 46 38 23 38 13
241 221 201 190 187 169 170 176 177 170 173 178 177 181 185 192 191 192 169 169 176 174 176 180 175 177 191 197 180 182 175 176 172 177 165 163 113 86 110 61 57 15 351 355
230 214 181 182 192 184 177 173 188 178 177 187 183 187 197 200 197 181 160 166 178 183 174 181 184 194 206 227 186 190 192 182 189 197 214 211 173 198 212 13 44 37 12 11
221 226 192 187 196 209 185 180 188 178 185 186 193 188 201 204 192 167 170 171 181 191 182 182 192 201 211 202 194 202 209 190 197 195 187 198 216 225 231 164 285 6 4 17